Hourly Weather Bartica

Today, 19 April, Monday

Time Temperature Precipitation Wind Pressure Humidity
00:00 +24°C° 0.1 mm 1 mps 758 mmHg 95%
01:00 +24°C° 0.1 mm 1 mps 757 mmHg 96%
02:00 +23°C° 0.1 mm 1 mps 757 mmHg 96%
03:00 +23°C° 0.1 mm 1 mps 757 mmHg 96%
04:00 +23°C° 0.1 mm 1 mps 757 mmHg 96%
05:00 +23°C° 0.1 mm 1 mps 758 mmHg 96%
06:00 +25°C° 0 mm 1 mps 758 mmHg 90%
07:00 +26°C° 0 mm 1 mps 758 mmHg 84%
08:00 +28°C° 0 mm 2 mps 759 mmHg 78%
09:00 +29°C° 0.3 mm 2 mps 759 mmHg 71%
10:00 +30°C° 0.3 mm 2 mps 759 mmHg 64%
11:00 +31°C° 0.3 mm 3 mps 758 mmHg 56%
12:00 +33°C° 0 mm 3 mps 758 mmHg 53%
13:00 +33°C° 0 mm 3 mps 757 mmHg 50%
14:00 +34°C° 0 mm 3 mps 756 mmHg 46%
15:00 +31°C° 0 mm 3 mps 756 mmHg 52%
16:00 +30°C° 0 mm 3 mps 756 mmHg 59%
17:00 +29°C° 0 mm 2 mps 756 mmHg 65%
18:00 +28°C° 0 mm 2 mps 756 mmHg 72%
19:00 +26°C° 0 mm 1 mps 757 mmHg 80%
20:00 +24°C° 0 mm 1 mps 758 mmHg 87%
21:00 +24°C° 0 mm 1 mps 758 mmHg 89%
22:00 +24°C° 0 mm 1 mps 758 mmHg 90%
23:00 +24°C° 0 mm 1 mps 758 mmHg 92%

Tomorrow, 20 April, Tuesday

Time Temperature Precipitation Wind Pressure Humidity
00:00 +24°C° 0 mm 1 mps 758 mmHg 93%
01:00 +23°C° 0 mm 1 mps 757 mmHg 93%
02:00 +21°C° 0 mm 0 mps 757 mmHg 94%
03:00 +21°C° 0 mm 0 mps 757 mmHg 94%
04:00 +21°C° 0 mm 0 mps 757 mmHg 94%
05:00 +21°C° 0 mm 0 mps 757 mmHg 94%
06:00 +23°C° 0 mm 0 mps 758 mmHg 87%
07:00 +26°C° 0 mm 1 mps 758 mmHg 79%
08:00 +28°C° 0 mm 1 mps 759 mmHg 71%
09:00 +29°C° 0 mm 1 mps 759 mmHg 63%
10:00 +31°C° 0 mm 1 mps 759 mmHg 55%
11:00 +32°C° 0 mm 2 mps 758 mmHg 47%
12:00 +34°C° 0 mm 2 mps 758 mmHg 45%
13:00 +34°C° 0 mm 2 mps 757 mmHg 42%
14:00 +35°C° 0 mm 2 mps 756 mmHg 40%
15:00 +32°C° 0 mm 2 mps 756 mmHg 47%
16:00 +31°C° 0 mm 2 mps 756 mmHg 54%
17:00 +30°C° 0 mm 2 mps 756 mmHg 60%
18:00 +28°C° 0 mm 2 mps 757 mmHg 69%
19:00 +27°C° 0 mm 2 mps 757 mmHg 79%
20:00 +25°C° 0 mm 1 mps 758 mmHg 88%
21:00 +25°C° 0 mm 1 mps 758 mmHg 89%
22:00 +24°C° 0 mm 1 mps 758 mmHg 90%
23:00 +24°C° 0 mm 1 mps 758 mmHg 91%

Day after tomorrow, 21 April, Wednesday

Time Temperature Precipitation Wind Pressure Humidity
00:00 +24°C° 0 mm 1 mps 758 mmHg 91%
01:00 +24°C° 0 mm 1 mps 757 mmHg 91%
02:00 +21°C° 0 mm 0 mps 757 mmHg 91%
03:00 +21°C° 0 mm 0 mps 757 mmHg 91%
04:00 +21°C° 0 mm 0 mps 757 mmHg 92%
05:00 +21°C° 0 mm 0 mps 757 mmHg 93%
06:00 +25°C° 0 mm 1 mps 758 mmHg 87%
07:00 +26°C° 0 mm 1 mps 758 mmHg 82%
08:00 +28°C° 0 mm 1 mps 758 mmHg 77%
09:00 +29°C° 0.6 mm 1 mps 758 mmHg 75%
10:00 +29°C° 0.6 mm 1 mps 758 mmHg 73%
11:00 +30°C° 0.6 mm 1 mps 758 mmHg 71%
12:00 +30°C° 0.7 mm 2 mps 757 mmHg 68%
13:00 +31°C° 0.7 mm 2 mps 757 mmHg 65%
14:00 +31°C° 0.7 mm 2 mps 756 mmHg 62%
15:00 +31°C° 0.1 mm 2 mps 756 mmHg 65%
16:00 +30°C° 0.1 mm 2 mps 756 mmHg 69%
17:00 +29°C° 0.1 mm 2 mps 756 mmHg 72%
18:00 +28°C° 0 mm 2 mps 756 mmHg 79%
19:00 +27°C° 0 mm 1 mps 757 mmHg 86%
20:00 +25°C° 0 mm 1 mps 758 mmHg 93%
21:00 +25°C° 0.6 mm 1 mps 758 mmHg 94%
22:00 +25°C° 0.6 mm 1 mps 758 mmHg 96%
23:00 +22°C° 0.6 mm 0 mps 758 mmHg 97%

22 April, Thursday

Time Temperature Precipitation Wind Pressure Humidity
00:00 +22°C° 0.6 mm 0 mps 758 mmHg 98%
01:00 +22°C° 0.6 mm 0 mps 757 mmHg 98%
02:00 +22°C° 0.6 mm 0 mps 756 mmHg 99%
03:00 +22°C° 0.1 mm 0 mps 756 mmHg 99%
04:00 +22°C° 0.1 mm 0 mps 757 mmHg 99%
05:00 +22°C° 0.1 mm 0 mps 757 mmHg 98%
06:00 +23°C° 0.7 mm 0 mps 757 mmHg 95%
07:00 +26°C° 0.7 mm 1 mps 758 mmHg 92%
08:00 +27°C° 0.7 mm 1 mps 758 mmHg 88%
09:00 +28°C° 1 mm 1 mps 758 mmHg 86%
10:00 +29°C° 1 mm 1 mps 758 mmHg 84%
11:00 +29°C° 1 mm 1 mps 758 mmHg 81%
12:00 +29°C° 1.7 mm 2 mps 757 mmHg 82%
13:00 +29°C° 1.7 mm 2 mps 757 mmHg 84%
14:00 +29°C° 1.7 mm 2 mps 756 mmHg 85%
15:00 +28°C° 0.6 mm 2 mps 755 mmHg 85%
16:00 +28°C° 0.6 mm 2 mps 755 mmHg 86%
17:00 +28°C° 0.6 mm 2 mps 755 mmHg 86%
18:00 +27°C° 0 mm 1 mps 756 mmHg 90%
19:00 +26°C° 0 mm 1 mps 756 mmHg 93%
20:00 +25°C° 0 mm 1 mps 757 mmHg 97%
21:00 +25°C° 0.4 mm 1 mps 757 mmHg 97%
22:00 +25°C° 0.4 mm 1 mps 757 mmHg 98%
23:00 +25°C° 0.4 mm 1 mps 758 mmHg 98%

23 April, Friday

Time Temperature Precipitation Wind Pressure Humidity
00:00 +23°C° 0.6 mm 0 mps 757 mmHg 99%
01:00 +22°C° 0.6 mm 0 mps 757 mmHg 99%
02:00 +22°C° 0.6 mm 0 mps 756 mmHg 99%
03:00 +22°C° 1 mm 0 mps 756 mmHg 99%
04:00 +22°C° 1 mm 0 mps 757 mmHg 99%
05:00 +22°C° 1 mm 0 mps 757 mmHg 99%
06:00 +25°C° 0.7 mm 1 mps 757 mmHg 96%
07:00 +26°C° 0.7 mm 1 mps 758 mmHg 94%
08:00 +27°C° 0.7 mm 1 mps 758 mmHg 91%
09:00 +28°C° 1.2 mm 1 mps 758 mmHg 88%
10:00 +28°C° 1.2 mm 1 mps 758 mmHg 86%
11:00 +29°C° 1.2 mm 2 mps 758 mmHg 83%
12:00 +29°C° 1.9 mm 2 mps 757 mmHg 82%
13:00 +29°C° 1.9 mm 2 mps 756 mmHg 82%
14:00 +30°C° 1.9 mm 2 mps 756 mmHg 81%
15:00 +29°C° 0.6 mm 2 mps 755 mmHg 83%
16:00 +28°C° 0.6 mm 2 mps 755 mmHg 84%
17:00 +28°C° 0.6 mm 2 mps 755 mmHg 85%
18:00 +27°C° 0.1 mm 1 mps 756 mmHg 89%
19:00 +26°C° 0.1 mm 1 mps 756 mmHg 93%
20:00 +25°C° 0.1 mm 1 mps 757 mmHg 97%
21:00 +25°C° 0 mm 1 mps 757 mmHg 97%
22:00 +25°C° 0 mm 1 mps 757 mmHg 98%
23:00 +25°C° 0 mm 1 mps 757 mmHg 98%

24 April, Saturday

Time Temperature Precipitation Wind Pressure Humidity
00:00 +25°C° 0.6 mm 1 mps 757 mmHg 98%
01:00 +23°C° 0.6 mm 0 mps 756 mmHg 98%
02:00 +22°C° 0.6 mm 0 mps 756 mmHg 99%
03:00 +22°C° 0.3 mm 0 mps 756 mmHg 99%
04:00 +22°C° 0.3 mm 0 mps 756 mmHg 98%
05:00 +22°C° 0.3 mm 0 mps 756 mmHg 98%
06:00 +23°C° 0.9 mm 0 mps 757 mmHg 96%
07:00 +24°C° 0.9 mm 0 mps 757 mmHg 93%
08:00 +27°C° 0.9 mm 1 mps 758 mmHg 91%
09:00 +28°C° 1.7 mm 1 mps 758 mmHg 90%
10:00 +28°C° 1.7 mm 1 mps 758 mmHg 89%
11:00 +28°C° 1.7 mm 1 mps 758 mmHg 88%
12:00 +28°C° 1.2 mm 1 mps 757 mmHg 87%
13:00 +29°C° 1.2 mm 2 mps 756 mmHg 87%
14:00 +29°C° 1.2 mm 2 mps 755 mmHg 86%
15:00 +28°C° 1.1 mm 2 mps 755 mmHg 89%
16:00 +28°C° 1.1 mm 2 mps 755 mmHg 91%
17:00 +27°C° 1.1 mm 1 mps 755 mmHg 94%
18:00 +26°C° 1.5 mm 1 mps 755 mmHg 95%
19:00 +26°C° 1.5 mm 1 mps 756 mmHg 96%
20:00 +25°C° 1.5 mm 1 mps 757 mmHg 98%
21:00 +25°C° 0.8 mm 1 mps 757 mmHg 98%
22:00 +25°C° 0.8 mm 1 mps 757 mmHg 98%
23:00 +25°C° 0.8 mm 1 mps 757 mmHg 98%
Show more